Time,TemperatureF,DewpointF,PressureIn,WindDirection,WindDirectionDegrees,WindSpeedMPH,WindSpeedGustMPH,Humidity,HourlyPrecipIn,Conditions,Clouds,dailyrainin,SoftwareType,DateUTC
2015-09-04 00:03:00,71.2,67.1,29.81,NE,49,1.0,2.0,87,0.00,,---,0.00,VWS V14.00,2015-09-04 05:03:00,
2015-09-04 00:08:00,71.3,67.2,29.81,NE,48,0.0,0.0,87,0.00,,---,0.00,VWS V14.00,2015-09-04 05:08:00,
2015-09-04 00:13:00,71.4,67.0,29.81,NE,51,0.0,0.0,86,0.00,,---,0.00,VWS V14.00,2015-09-04 05:13:00,
2015-09-04 00:23:00,71.5,67.1,29.81,ENE,61,0.0,0.0,86,0.00,,---,0.00,VWS V14.00,2015-09-04 05:23:00,
2015-09-04 00:28:00,71.5,67.1,29.81,ENE,61,0.0,0.0,86,0.00,,---,0.00,VWS V14.00,2015-09-04 05:28:00,
2015-09-04 00:33:00,71.4,67.3,29.81,ENE,61,0.0,1.0,87,0.00,,---,0.00,VWS V14.00,2015-09-04 05:33:00,
2015-09-04 00:38:00,71.3,67.2,29.81,ENE,61,0.0,0.0,87,0.00,,---,0.00,VWS V14.00,2015-09-04 05:38:00,
2015-09-04 00:43:00,71.2,67.1,29.81,ENE,61,0.0,0.0,87,0.00,,---,0.00,VWS V14.00,2015-09-04 05:43:00,
2015-09-04 00:48:00,71.1,67.0,29.81,ENE,62,2.0,3.0,87,0.00,,---,0.00,VWS V14.00,2015-09-04 05:48:00,
2015-09-04 00:53:00,71.0,67.3,29.81,ENE,63,0.0,0.0,88,0.00,,---,0.00,VWS V14.00,2015-09-04 05:53:00,
2015-09-04 00:58:00,70.9,67.2,29.81,ENE,63,0.0,1.0,88,0.00,,---,0.00,VWS V14.00,2015-09-04 05:58:00,
2015-09-04 01:03:00,70.8,67.1,29.81,ENE,63,0.0,0.0,88,0.00,,---,0.00,VWS V14.00,2015-09-04 06:03:00,
2015-09-04 01:08:00,70.7,67.0,29.81,ENE,63,0.0,0.0,88,0.00,,---,0.00,VWS V14.00,2015-09-04 06:08:00,
2015-09-04 01:13:00,70.7,67.0,29.81,ENE,63,0.0,0.0,88,0.00,,---,0.00,VWS V14.00,2015-09-04 06:13:00,
2015-09-04 01:18:00,70.7,67.3,29.81,ENE,63,0.0,0.0,89,0.00,,---,0.00,VWS V14.00,2015-09-04 06:18:00,
2015-09-04 01:23:00,70.7,67.3,29.81,ENE,63,0.0,0.0,89,0.00,,---,0.00,VWS V14.00,2015-09-04 06:23:00,
2015-09-04 01:28:00,70.8,67.4,29.82,ENE,63,0.0,0.0,89,0.00,,---,0.00,VWS V14.00,2015-09-04 06:28:00,
2015-09-04 01:38:00,70.9,67.5,29.82,ENE,63,0.0,0.0,89,0.00,,---,0.00,VWS V14.00,2015-09-04 06:38:00,
2015-09-04 01:43:00,71.0,67.6,29.82,ENE,63,0.0,0.0,89,0.00,,---,0.00,VWS V14.00,2015-09-04 06:43:00,
2015-09-04 01:48:00,71.0,67.3,29.82,ENE,63,0.0,0.0,88,0.00,,---,0.00,VWS V14.00,2015-09-04 06:48:00,
2015-09-04 01:54:00,71.0,67.6,29.82,ENE,63,0.0,1.0,89,0.00,,---,0.00,VWS V14.00,2015-09-04 06:54:00,
2015-09-04 01:59:00,71.2,67.5,29.82,ENE,63,0.0,0.0,88,0.00,,---,0.00,VWS V14.00,2015-09-04 06:59:00,
2015-09-04 02:04:00,71.2,67.5,29.82,ENE,63,0.0,1.0,88,0.00,,---,0.00,VWS V14.00,2015-09-04 07:04:00,
2015-09-04 02:09:00,71.3,67.6,29.82,ENE,63,0.0,0.0,88,0.00,,---,0.00,VWS V14.00,2015-09-04 07:09:00,
2015-09-04 02:14:00,71.3,67.6,29.82,ENE,63,0.0,0.0,88,0.00,,---,0.00,VWS V14.00,2015-09-04 07:14:00,
2015-09-04 02:19:00,71.3,67.6,29.82,ENE,63,0.0,0.0,88,0.00,,---,0.00,VWS V14.00,2015-09-04 07:19:00,
2015-09-04 02:24:00,71.3,67.6,29.82,ENE,63,0.0,0.0,88,0.00,,---,0.00,VWS V14.00,2015-09-04 07:24:00,
2015-09-04 02:29:00,71.3,67.6,29.83,ENE,63,0.0,0.0,88,0.00,,---,0.00,VWS V14.00,2015-09-04 07:29:00,
2015-09-04 02:34:00,71.4,67.7,29.83,ENE,63,0.0,0.0,88,0.00,,---,0.00,VWS V14.00,2015-09-04 07:34:00,
2015-09-04 02:39:00,71.4,67.7,29.83,ENE,63,0.0,0.0,88,0.00,,---,0.00,VWS V14.00,2015-09-04 07:39:00,
2015-09-04 02:44:00,71.4,67.7,29.83,ENE,63,0.0,0.0,88,0.00,,---,0.00,VWS V14.00,2015-09-04 07:44:00,
2015-09-04 02:49:00,71.3,67.6,29.83,ENE,63,0.0,0.0,88,0.00,,---,0.00,VWS V14.00,2015-09-04 07:49:00,
2015-09-04 02:54:00,71.2,67.5,29.83,ENE,63,0.0,0.0,88,0.00,,---,0.00,VWS V14.00,2015-09-04 07:54:00,
2015-09-04 02:59:00,71.2,67.8,29.83,ENE,63,0.0,0.0,89,0.00,,---,0.00,VWS V14.00,2015-09-04 07:59:00,
2015-09-04 03:04:00,71.1,67.7,29.83,ENE,63,0.0,0.0,89,0.00,,---,0.00,VWS V14.00,2015-09-04 08:04:00,
2015-09-04 03:09:00,71.0,67.6,29.82,ENE,63,0.0,0.0,89,0.00,,---,0.00,VWS V14.00,2015-09-04 08:09:00,
2015-09-04 03:14:00,70.9,67.5,29.82,ENE,63,0.0,0.0,89,0.00,,---,0.00,VWS V14.00,2015-09-04 08:14:00,
2015-09-04 03:19:00,70.8,67.4,29.83,ENE,63,0.0,0.0,89,0.00,,---,0.00,VWS V14.00,2015-09-04 08:19:00,
2015-09-04 03:24:00,70.8,67.4,29.83,ENE,63,0.0,0.0,89,0.00,,---,0.00,VWS V14.00,2015-09-04 08:24:00,
2015-09-04 03:29:00,70.8,67.4,29.82,ENE,63,0.0,0.0,89,0.00,,---,0.00,VWS V14.00,2015-09-04 08:29:00,
2015-09-04 03:34:00,70.8,67.4,29.82,ENE,63,0.0,0.0,89,0.00,,---,0.00,VWS V14.00,2015-09-04 08:34:00,
2015-09-04 03:39:00,70.8,67.4,29.83,ENE,63,0.0,0.0,89,0.00,,---,0.00,VWS V14.00,2015-09-04 08:39:00,
2015-09-04 03:44:00,70.8,67.4,29.82,ENE,63,0.0,0.0,89,0.00,,---,0.00,VWS V14.00,2015-09-04 08:44:00,
2015-09-04 03:49:00,70.8,67.4,29.82,ENE,63,0.0,0.0,89,0.00,,---,0.00,VWS V14.00,2015-09-04 08:49:00,
2015-09-04 03:54:00,70.8,67.4,29.82,ENE,63,0.0,0.0,89,0.00,,---,0.00,VWS V14.00,2015-09-04 08:54:00,
2015-09-04 03:59:00,70.8,67.4,29.82,ENE,63,0.0,0.0,89,0.00,,---,0.00,VWS V14.00,2015-09-04 08:59:00,
2015-09-04 04:05:00,70.8,67.4,29.82,ENE,63,0.0,0.0,89,0.00,,---,0.00,VWS V14.00,2015-09-04 09:05:00,
2015-09-04 04:10:00,70.8,67.4,29.83,ENE,63,0.0,0.0,89,0.00,,---,0.00,VWS V14.00,2015-09-04 09:10:00,
2015-09-04 04:15:00,70.8,67.4,29.83,ENE,63,0.0,0.0,89,0.00,,---,0.00,VWS V14.00,2015-09-04 09:15:00,
2015-09-04 04:20:00,70.8,67.4,29.83,ENE,63,0.0,0.0,89,0.00,,---,0.00,VWS V14.00,2015-09-04 09:20:00,
2015-09-04 04:25:00,70.8,67.4,29.82,ENE,63,0.0,0.0,89,0.00,,---,0.00,VWS V14.00,2015-09-04 09:25:00,
2015-09-04 04:30:00,70.8,67.4,29.82,ENE,63,0.0,0.0,89,0.00,,---,0.00,VWS V14.00,2015-09-04 09:30:00,
2015-09-04 04:35:00,70.8,67.4,29.82,ENE,63,0.0,0.0,89,0.00,,---,0.00,VWS V14.00,2015-09-04 09:35:00,
2015-09-04 04:40:00,70.8,67.4,29.82,ENE,63,0.0,0.0,89,0.00,,---,0.00,VWS V14.00,2015-09-04 09:40:00,
2015-09-04 04:45:00,70.8,67.4,29.82,ENE,63,0.0,0.0,89,0.00,,---,0.00,VWS V14.00,2015-09-04 09:45:00,
2015-09-04 04:50:00,70.8,67.4,29.82,ENE,63,0.0,0.0,89,0.00,,---,0.00,VWS V14.00,2015-09-04 09:50:00,
2015-09-04 04:55:00,70.8,67.4,29.82,ENE,63,0.0,0.0,89,0.00,,---,0.00,VWS V14.00,2015-09-04 09:55:00,
2015-09-04 05:00:00,70.8,67.4,29.83,ENE,63,0.0,0.0,89,0.00,,---,0.00,VWS V14.00,2015-09-04 10:00:00,
2015-09-04 05:05:00,70.8,67.4,29.83,ENE,63,0.0,0.0,89,0.00,,---,0.00,VWS V14.00,2015-09-04 10:05:00,
2015-09-04 05:10:00,70.8,67.4,29.83,ENE,63,0.0,0.0,89,0.00,,---,0.00,VWS V14.00,2015-09-04 10:10:00,
2015-09-04 05:15:00,70.8,67.4,29.83,ENE,63,0.0,0.0,89,0.00,,---,0.00,VWS V14.00,2015-09-04 10:15:00,
2015-09-04 05:20:00,70.8,67.4,29.82,ENE,63,0.0,0.0,89,0.00,,---,0.00,VWS V14.00,2015-09-04 10:20:00,
2015-09-04 05:21:00,70.8,67.4,29.83,ENE,63,0.0,0.0,89,0.00,,---,0.00,VWS V14.00,2015-09-04 10:21:00,
2015-09-04 05:23:00,70.8,67.4,29.83,ENE,63,0.0,0.0,89,0.00,,---,0.00,VWS V14.00,2015-09-04 10:23:00,
2015-09-04 05:27:00,70.8,67.4,29.83,ENE,63,0.0,0.0,89,0.00,,---,0.00,VWS V14.00,2015-09-04 10:27:00,
2015-09-04 05:32:00,70.8,67.4,29.82,ENE,63,0.0,0.0,89,0.00,,---,0.00,VWS V14.00,2015-09-04 10:32:00,
2015-09-04 05:37:00,70.8,67.4,29.83,ENE,63,0.0,0.0,89,0.00,,---,0.00,VWS V14.00,2015-09-04 10:37:00,
2015-09-04 05:42:00,70.8,67.4,29.82,ENE,63,0.0,0.0,89,0.00,,---,0.00,VWS V14.00,2015-09-04 10:42:00,
2015-09-04 05:47:00,70.8,67.4,29.83,ENE,63,0.0,0.0,89,0.00,,---,0.00,VWS V14.00,2015-09-04 10:47:00,
2015-09-04 05:52:00,70.8,67.4,29.82,ENE,63,0.0,0.0,89,0.00,,---,0.00,VWS V14.00,2015-09-04 10:52:00,
2015-09-04 05:57:00,70.8,67.4,29.83,ENE,63,0.0,0.0,89,0.00,,---,0.00,VWS V14.00,2015-09-04 10:57:00,
2015-09-04 06:03:00,70.8,67.4,29.83,ENE,63,0.0,0.0,89,0.00,,---,0.00,VWS V14.00,2015-09-04 11:03:00,
2015-09-04 06:08:00,70.8,67.4,29.83,ENE,63,0.0,0.0,89,0.00,,---,0.00,VWS V14.00,2015-09-04 11:08:00,
2015-09-04 06:13:00,70.8,67.4,29.83,ENE,63,0.0,0.0,89,0.00,,---,0.00,VWS V14.00,2015-09-04 11:13:00,
2015-09-04 06:18:00,70.8,67.4,29.84,ENE,63,0.0,0.0,89,0.00,,---,0.00,VWS V14.00,2015-09-04 11:18:00,
2015-09-04 06:23:00,70.8,67.4,29.84,ENE,63,0.0,0.0,89,0.00,,---,0.00,VWS V14.00,2015-09-04 11:23:00,
2015-09-04 06:28:00,70.8,67.4,29.84,ENE,63,0.0,0.0,89,0.00,,---,0.00,VWS V14.00,2015-09-04 11:28:00,
2015-09-04 06:33:00,70.8,67.4,29.84,ENE,63,0.0,0.0,89,0.00,,---,0.00,VWS V14.00,2015-09-04 11:33:00,
2015-09-04 06:38:00,70.8,67.4,29.84,ENE,63,0.0,0.0,89,0.00,,---,0.00,VWS V14.00,2015-09-04 11:38:00,
2015-09-04 06:43:00,70.8,67.4,29.84,ENE,63,0.0,0.0,89,0.00,,---,0.00,VWS V14.00,2015-09-04 11:43:00,
2015-09-04 06:48:00,70.8,67.4,29.84,ENE,63,0.0,0.0,89,0.00,,---,0.00,VWS V14.00,2015-09-04 11:48:00,
2015-09-04 06:53:00,70.8,67.4,29.84,ENE,63,0.0,0.0,89,0.00,,---,0.00,VWS V14.00,2015-09-04 11:53:00,
2015-09-04 06:58:00,70.8,67.4,29.85,ENE,63,0.0,0.0,89,0.00,,---,0.00,VWS V14.00,2015-09-04 11:58:00,
2015-09-04 07:03:00,70.8,67.4,29.85,ENE,63,0.0,0.0,89,0.00,,---,0.00,VWS V14.00,2015-09-04 12:03:00,
2015-09-04 07:08:00,66.9,65.4,29.85,ENE,63,0.0,0.0,95,0.00,,---,0.00,VWS V14.00,2015-09-04 12:08:00,
2015-09-04 07:13:00,67.2,65.7,29.85,ENE,63,0.0,0.0,95,0.00,,---,0.00,VWS V14.00,2015-09-04 12:13:00,
2015-09-04 07:18:00,67.5,66.0,29.85,ENE,63,0.0,0.0,95,0.00,,---,0.00,VWS V14.00,2015-09-04 12:18:00,
2015-09-04 07:23:00,67.7,66.2,29.85,ENE,63,0.0,0.0,95,0.00,,---,0.00,VWS V14.00,2015-09-04 12:23:00,
2015-09-04 07:28:00,68.1,66.3,29.86,ENE,63,0.0,0.0,94,0.00,,---,0.00,VWS V14.00,2015-09-04 12:28:00,
2015-09-04 07:33:00,68.5,66.7,29.86,ENE,63,0.0,0.0,94,0.00,,---,0.00,VWS V14.00,2015-09-04 12:33:00,
2015-09-04 07:38:00,68.8,67.0,29.86,ENE,63,0.0,0.0,94,0.00,,---,0.00,VWS V14.00,2015-09-04 12:38:00,
2015-09-04 07:43:00,69.2,67.4,29.86,ENE,63,0.0,0.0,94,0.00,,---,0.00,VWS V14.00,2015-09-04 12:43:00,
2015-09-04 07:48:00,69.7,67.9,29.86,ENE,63,0.0,0.0,94,0.00,,---,0.00,VWS V14.00,2015-09-04 12:48:00,
2015-09-04 07:53:00,70.0,67.9,29.86,ENE,63,0.0,0.0,93,0.00,,---,0.00,VWS V14.00,2015-09-04 12:53:00,
2015-09-04 07:58:00,70.5,68.1,29.86,ENE,63,0.0,0.0,92,0.00,,---,0.00,VWS V14.00,2015-09-04 12:58:00,
2015-09-04 08:03:00,70.8,68.1,29.86,ENE,63,0.0,1.0,91,0.00,,---,0.00,VWS V14.00,2015-09-04 13:03:00,
2015-09-04 08:08:00,70.6,67.5,29.86,ENE,63,0.0,0.0,90,0.00,,---,0.00,VWS V14.00,2015-09-04 13:08:00,
2015-09-04 08:14:00,70.4,67.3,29.86,ENE,63,0.0,0.0,90,0.00,,---,0.00,VWS V14.00,2015-09-04 13:14:00,
2015-09-04 08:19:00,70.3,67.2,29.87,ENE,63,0.0,0.0,90,0.00,,---,0.00,VWS V14.00,2015-09-04 13:19:00,
2015-09-04 08:24:00,70.3,67.2,29.87,ENE,63,0.0,0.0,90,0.00,,---,0.00,VWS V14.00,2015-09-04 13:24:00,
2015-09-04 08:29:00,70.4,67.3,29.87,ENE,63,0.0,0.0,90,0.00,,---,0.00,VWS V14.00,2015-09-04 13:29:00,
2015-09-04 08:34:00,70.6,67.8,29.87,ENE,63,0.0,0.0,91,0.00,,---,0.00,VWS V14.00,2015-09-04 13:34:00,
2015-09-04 08:39:00,70.7,67.6,29.87,ENE,63,0.0,0.0,90,0.00,,---,0.00,VWS V14.00,2015-09-04 13:39:00,
2015-09-04 08:44:00,71.1,68.0,29.87,ENE,63,0.0,0.0,90,0.00,,---,0.00,VWS V14.00,2015-09-04 13:44:00,
2015-09-04 08:49:00,71.3,68.2,29.87,ENE,63,0.0,0.0,90,0.00,,---,0.00,VWS V14.00,2015-09-04 13:49:00,
2015-09-04 08:54:00,71.4,68.3,29.88,ENE,63,0.0,0.0,90,0.00,,---,0.00,VWS V14.00,2015-09-04 13:54:00,
2015-09-04 08:59:00,71.5,68.1,29.88,ENE,63,0.0,0.0,89,0.00,,---,0.00,VWS V14.00,2015-09-04 13:59:00,
2015-09-04 09:09:00,71.5,68.1,29.88,ENE,65,0.0,4.0,89,0.00,,---,0.00,VWS V14.00,2015-09-04 14:09:00,
2015-09-04 09:14:00,71.5,68.1,29.88,ENE,65,0.0,1.0,89,0.00,,---,0.00,VWS V14.00,2015-09-04 14:14:00,
2015-09-04 09:19:00,71.5,68.1,29.88,ENE,65,0.0,3.0,89,0.00,,---,0.00,VWS V14.00,2015-09-04 14:19:00,
2015-09-04 09:24:00,71.6,68.2,29.88,ENE,65,0.0,0.0,89,0.00,,---,0.00,VWS V14.00,2015-09-04 14:24:00,
2015-09-04 09:29:00,71.9,68.5,29.88,ENE,75,5.0,5.0,89,0.00,,---,0.00,VWS V14.00,2015-09-04 14:29:00,
2015-09-04 09:34:00,72.3,68.9,29.88,ENE,76,0.0,0.0,89,0.00,,---,0.00,VWS V14.00,2015-09-04 14:34:00,
2015-09-04 09:39:00,73.1,69.7,29.89,ENE,76,0.0,1.0,89,0.00,,---,0.00,VWS V14.00,2015-09-04 14:39:00,
2015-09-04 09:44:00,73.8,69.7,29.88,ENE,76,0.0,4.0,87,0.00,,---,0.00,VWS V14.00,2015-09-04 14:44:00,
2015-09-04 09:49:00,74.4,69.9,29.89,ENE,67,0.0,0.0,86,0.00,,---,0.00,VWS V14.00,2015-09-04 14:49:00,
2015-09-04 09:54:00,74.8,70.0,29.89,ENE,67,0.0,6.0,85,0.00,,---,0.00,VWS V14.00,2015-09-04 14:54:00,
2015-09-04 09:59:00,75.2,70.4,29.89,NE,56,2.0,3.0,85,0.00,,---,0.00,VWS V14.00,2015-09-04 14:59:00,
2015-09-04 10:04:00,75.3,69.8,29.88,NE,55,0.0,2.0,83,0.00,,---,0.00,VWS V14.00,2015-09-04 15:04:00,
2015-09-04 10:09:00,75.4,69.9,29.88,East,88,0.0,2.0,83,0.00,,---,0.00,VWS V14.00,2015-09-04 15:09:00,
2015-09-04 10:14:00,75.5,70.0,29.88,NNE,29,4.0,4.0,83,0.00,,---,0.00,VWS V14.00,2015-09-04 15:14:00,
2015-09-04 10:19:00,75.5,70.7,29.88,NE,41,0.0,6.0,85,0.00,,---,0.00,VWS V14.00,2015-09-04 15:19:00,
2015-09-04 10:24:00,75.8,70.3,29.88,ENE,73,3.0,5.0,83,0.00,,---,0.00,VWS V14.00,2015-09-04 15:24:00,
2015-09-04 10:30:00,75.8,69.9,29.89,East,90,0.0,0.0,82,0.00,,---,0.00,VWS V14.00,2015-09-04 15:30:00,
2015-09-04 10:35:00,75.8,70.3,29.88,NE,55,0.0,4.0,83,0.00,,---,0.00,VWS V14.00,2015-09-04 15:35:00,
2015-09-04 10:40:00,76.2,70.7,29.88,NE,51,3.0,3.0,83,0.00,,---,0.00,VWS V14.00,2015-09-04 15:40:00,
2015-09-04 10:45:00,76.3,70.4,29.89,ESE,109,0.0,4.0,82,0.00,,---,0.00,VWS V14.00,2015-09-04 15:45:00,
2015-09-04 10:50:00,76.4,70.5,29.89,ENE,76,0.0,2.0,82,0.00,,---,0.00,VWS V14.00,2015-09-04 15:50:00,
2015-09-04 10:55:00,76.6,70.3,29.88,ENE,63,0.0,3.0,81,0.00,,---,0.00,VWS V14.00,2015-09-04 15:55:00,
2015-09-04 11:00:00,76.8,70.5,29.88,ENE,61,0.0,3.0,81,0.00,,---,0.00,VWS V14.00,2015-09-04 16:00:00,
2015-09-04 11:05:00,77.4,70.8,29.88,East,89,0.0,1.0,80,0.00,,---,0.00,VWS V14.00,2015-09-04 16:05:00,
2015-09-04 11:10:00,77.7,70.7,29.88,ENE,66,0.0,5.0,79,0.00,,---,0.00,VWS V14.00,2015-09-04 16:10:00,
2015-09-04 11:15:00,78.0,71.0,29.88,East,80,0.0,5.0,79,0.00,,---,0.00,VWS V14.00,2015-09-04 16:15:00,
2015-09-04 11:20:00,78.3,71.3,29.88,ENE,78,0.0,1.0,79,0.00,,---,0.00,VWS V14.00,2015-09-04 16:20:00,
2015-09-04 11:25:00,78.6,71.2,29.88,ENE,78,0.0,1.0,78,0.00,,---,0.00,VWS V14.00,2015-09-04 16:25:00,
2015-09-04 11:30:00,79.2,71.8,29.88,SE,137,0.0,6.0,78,0.00,,---,0.00,VWS V14.00,2015-09-04 16:30:00,
2015-09-04 11:35:00,79.4,71.9,29.88,SE,128,0.0,1.0,78,0.00,,---,0.00,VWS V14.00,2015-09-04 16:35:00,
2015-09-04 11:40:00,79.3,71.1,29.88,SE,134,3.0,6.0,76,0.00,,---,0.00,VWS V14.00,2015-09-04 16:40:00,
2015-09-04 11:45:00,79.5,71.3,29.88,SE,144,0.0,5.0,76,0.00,,---,0.00,VWS V14.00,2015-09-04 16:45:00,
2015-09-04 11:50:00,79.9,72.1,29.88,SE,127,1.0,5.0,77,0.00,,---,0.00,VWS V14.00,2015-09-04 16:50:00,
2015-09-04 11:55:00,79.8,71.6,29.87,ESE,121,0.0,1.0,76,0.00,,---,0.00,VWS V14.00,2015-09-04 16:55:00,
2015-09-04 12:00:00,79.8,71.2,29.87,ENE,76,0.0,2.0,75,0.00,,---,0.00,VWS V14.00,2015-09-04 17:00:00,
2015-09-04 12:05:00,80.3,72.1,29.87,SE,140,3.0,7.0,76,0.00,,---,0.00,VWS V14.00,2015-09-04 17:05:00,
2015-09-04 12:10:00,80.4,72.2,29.87,ESE,119,2.0,4.0,76,0.00,,---,0.00,VWS V14.00,2015-09-04 17:10:00,
2015-09-04 12:15:00,80.6,71.9,29.87,SE,125,0.0,3.0,75,0.00,,---,0.00,VWS V14.00,2015-09-04 17:15:00,
2015-09-04 12:20:00,80.7,72.0,29.87,SSE,149,5.0,5.0,75,0.00,,---,0.00,VWS V14.00,2015-09-04 17:20:00,
2015-09-04 12:25:00,81.2,72.5,29.87,ESE,105,4.0,4.0,75,0.00,,---,0.00,VWS V14.00,2015-09-04 17:25:00,
2015-09-04 12:30:00,80.8,72.1,29.87,ESE,112,0.0,1.0,75,0.00,,---,0.00,VWS V14.00,2015-09-04 17:30:00,
2015-09-04 12:35:00,80.9,72.6,29.87,ESE,114,0.0,0.0,76,0.00,,---,0.00,VWS V14.00,2015-09-04 17:35:00,
2015-09-04 12:41:00,81.1,73.2,29.86,ESE,113,1.0,3.0,77,0.00,,---,0.00,VWS V14.00,2015-09-04 17:41:00,
2015-09-04 12:46:00,81.0,72.3,29.86,East,80,0.0,1.0,75,0.00,,---,0.00,VWS V14.00,2015-09-04 17:46:00,
2015-09-04 12:51:00,80.6,71.6,29.86,East,99,0.0,4.0,74,0.00,,---,0.00,VWS V14.00,2015-09-04 17:51:00,
2015-09-04 12:56:00,80.3,71.7,29.86,East,90,0.0,0.0,75,0.00,,---,0.00,VWS V14.00,2015-09-04 17:56:00,
2015-09-04 13:01:00,80.2,72.3,29.86,East,90,0.0,0.0,77,0.00,,---,0.00,VWS V14.00,2015-09-04 18:01:00,
2015-09-04 13:06:00,80.8,72.9,29.86,East,83,0.0,0.0,77,0.00,,---,0.00,VWS V14.00,2015-09-04 18:06:00,
2015-09-04 13:11:00,81.4,73.1,29.86,East,88,0.0,3.0,76,0.00,,---,0.00,VWS V14.00,2015-09-04 18:11:00,
2015-09-04 13:16:00,82.3,74.4,29.86,East,89,0.0,1.0,77,0.00,,---,0.00,VWS V14.00,2015-09-04 18:16:00,
2015-09-04 13:21:00,82.5,73.4,29.86,ESE,113,0.0,7.0,74,0.00,,---,0.00,VWS V14.00,2015-09-04 18:21:00,
2015-09-04 13:26:00,82.5,73.0,29.85,East,91,0.0,1.0,73,0.00,,---,0.00,VWS V14.00,2015-09-04 18:26:00,
2015-09-04 13:31:00,82.4,73.3,29.86,ENE,64,0.0,3.0,74,0.00,,---,0.00,VWS V14.00,2015-09-04 18:31:00,
2015-09-04 13:36:00,82.4,73.3,29.85,NE,52,0.0,3.0,74,0.00,,---,0.00,VWS V14.00,2015-09-04 18:36:00,
2015-09-04 13:41:00,82.4,73.3,29.85,SSE,151,0.0,5.0,74,0.00,,---,0.00,VWS V14.00,2015-09-04 18:41:00,
2015-09-04 13:46:00,82.8,74.1,29.85,ESE,102,0.0,3.0,75,0.00,,---,0.00,VWS V14.00,2015-09-04 18:46:00,
2015-09-04 13:51:00,83.0,74.3,29.85,ESE,102,0.0,0.0,75,0.00,,---,0.00,VWS V14.00,2015-09-04 18:51:00,
2015-09-04 13:56:00,83.1,73.6,29.85,SE,142,0.0,4.0,73,0.00,,---,0.00,VWS V14.00,2015-09-04 18:56:00,
2015-09-04 14:01:00,82.6,73.5,29.85,SE,134,1.0,1.0,74,0.00,,---,0.00,VWS V14.00,2015-09-04 19:01:00,
2015-09-04 14:06:00,82.3,73.6,29.85,SE,134,0.0,0.0,75,0.00,,---,0.00,VWS V14.00,2015-09-04 19:06:00,
2015-09-04 14:11:00,82.5,74.2,29.85,SE,143,0.0,1.0,76,0.00,,---,0.00,VWS V14.00,2015-09-04 19:11:00,
2015-09-04 14:16:00,83.0,74.7,29.85,SSE,150,3.0,5.0,76,0.00,,---,0.00,VWS V14.00,2015-09-04 19:16:00,
2015-09-04 14:21:00,83.2,74.8,29.85,SSE,153,5.0,6.0,76,0.00,,---,0.00,VWS V14.00,2015-09-04 19:21:00,
2015-09-04 14:26:00,83.1,74.8,29.85,SSE,153,0.0,1.0,76,0.00,,---,0.00,VWS V14.00,2015-09-04 19:26:00,
2015-09-04 14:36:00,83.9,74.3,29.85,SE,124,0.0,4.0,73,0.00,,---,0.00,VWS V14.00,2015-09-04 19:36:00,
2015-09-04 14:42:00,83.9,74.3,29.85,ESE,120,0.0,4.0,73,0.00,,---,0.00,VWS V14.00,2015-09-04 19:42:00,
2015-09-04 14:47:00,84.0,75.2,29.85,SE,124,0.0,1.0,75,0.00,,---,0.00,VWS V14.00,2015-09-04 19:47:00,
2015-09-04 14:52:00,84.4,74.8,29.85,SSE,153,0.0,4.0,73,0.00,,---,0.00,VWS V14.00,2015-09-04 19:52:00,
2015-09-04 14:57:00,84.8,74.8,29.84,ESE,105,1.0,3.0,72,0.00,,---,0.00,VWS V14.00,2015-09-04 19:57:00,
2015-09-04 15:02:00,84.7,74.7,29.83,NE,38,0.0,3.0,72,0.00,,---,0.00,VWS V14.00,2015-09-04 20:02:00,
2015-09-04 15:07:00,84.8,75.2,29.83,NE,39,0.0,1.0,73,0.00,,---,0.00,VWS V14.00,2015-09-04 20:07:00,
2015-09-04 15:12:00,84.9,74.9,29.83,East,94,2.0,6.0,72,0.00,,---,0.00,VWS V14.00,2015-09-04 20:12:00,
2015-09-04 15:17:00,84.8,74.8,29.83,ESE,107,1.0,4.0,72,0.00,,---,0.00,VWS V14.00,2015-09-04 20:17:00,
2015-09-04 15:22:00,85.0,75.0,29.82,SE,135,1.0,5.0,72,0.00,,---,0.00,VWS V14.00,2015-09-04 20:22:00,
2015-09-04 15:27:00,84.7,74.3,29.82,SE,136,0.0,5.0,71,0.00,,---,0.00,VWS V14.00,2015-09-04 20:27:00,
2015-09-04 15:32:00,84.9,74.9,29.82,SE,135,0.0,4.0,72,0.00,,---,0.00,VWS V14.00,2015-09-04 20:32:00,
2015-09-04 15:37:00,85.1,74.2,29.82,East,100,0.0,3.0,70,0.00,,---,0.00,VWS V14.00,2015-09-04 20:37:00,
2015-09-04 15:42:00,85.2,74.3,29.82,East,98,0.0,1.0,70,0.00,,---,0.00,VWS V14.00,2015-09-04 20:42:00,
2015-09-04 15:47:00,85.2,74.3,29.82,East,98,0.0,1.0,70,0.00,,---,0.00,VWS V14.00,2015-09-04 20:47:00,
2015-09-04 15:52:00,84.9,74.4,29.82,East,101,0.0,4.0,71,0.00,,---,0.00,VWS V14.00,2015-09-04 20:52:00,
2015-09-04 15:57:00,85.0,75.0,29.82,ESE,123,0.0,0.0,72,0.00,,---,0.00,VWS V14.00,2015-09-04 20:57:00,
2015-09-04 16:02:00,85.2,75.2,29.82,SE,126,2.0,4.0,72,0.00,,---,0.00,VWS V14.00,2015-09-04 21:02:00,
2015-09-04 16:07:00,85.0,74.6,29.82,SE,131,0.0,0.0,71,0.00,,---,0.00,VWS V14.00,2015-09-04 21:07:00,
2015-09-04 16:12:00,84.7,74.7,29.82,SE,130,0.0,0.0,72,0.00,,---,0.00,VWS V14.00,2015-09-04 21:12:00,
2015-09-04 16:17:00,85.0,74.6,29.82,ESE,105,0.0,0.0,71,0.00,,---,0.00,VWS V14.00,2015-09-04 21:17:00,
2015-09-04 16:22:00,85.3,75.2,29.82,East,84,0.0,1.0,72,0.00,,---,0.00,VWS V14.00,2015-09-04 21:22:00,
2015-09-04 16:27:00,85.5,75.4,29.82,ESE,113,0.0,2.0,72,0.00,,---,0.00,VWS V14.00,2015-09-04 21:27:00,
2015-09-04 16:32:00,85.1,74.6,29.82,East,95,0.0,0.0,71,0.00,,---,0.00,VWS V14.00,2015-09-04 21:32:00,
2015-09-04 16:37:00,84.8,75.2,29.82,East,100,0.0,0.0,73,0.00,,---,0.00,VWS V14.00,2015-09-04 21:37:00,
2015-09-04 16:42:00,84.6,75.4,29.82,ENE,63,0.0,0.0,74,0.00,,---,0.00,VWS V14.00,2015-09-04 21:42:00,
2015-09-04 16:47:00,84.4,74.8,29.82,East,87,0.0,1.0,73,0.00,,---,0.00,VWS V14.00,2015-09-04 21:47:00,
2015-09-04 16:52:00,84.1,75.3,29.82,NE,45,3.0,4.0,75,0.00,,---,0.00,VWS V14.00,2015-09-04 21:52:00,
2015-09-04 16:57:00,83.9,74.7,29.82,NNE,32,0.0,0.0,74,0.00,,---,0.00,VWS V14.00,2015-09-04 21:57:00,
2015-09-04 17:02:00,84.0,75.6,29.81,East,94,0.0,0.0,76,0.00,,---,0.00,VWS V14.00,2015-09-04 22:02:00,
2015-09-04 17:07:00,84.1,74.9,29.82,East,95,0.0,3.0,74,0.00,,---,0.00,VWS V14.00,2015-09-04 22:07:00,
2015-09-04 17:12:00,84.3,75.1,29.82,East,90,0.0,1.0,74,0.00,,---,0.00,VWS V14.00,2015-09-04 22:12:00,
2015-09-04 17:17:00,84.2,75.0,29.82,ESE,108,0.0,0.0,74,0.00,,---,0.00,VWS V14.00,2015-09-04 22:17:00,
2015-09-04 17:22:00,84.2,75.0,29.82,East,101,1.0,1.0,74,0.00,,---,0.00,VWS V14.00,2015-09-04 22:22:00,
2015-09-04 17:28:00,84.1,74.9,29.82,ESE,107,0.0,4.0,74,0.00,,---,0.00,VWS V14.00,2015-09-04 22:28:00,
2015-09-04 17:33:00,84.0,75.2,29.82,East,82,0.0,2.0,75,0.00,,---,0.00,VWS V14.00,2015-09-04 22:33:00,